Location: Unspecified
(0.0000°N, 0.0000°E)
Time: 09:36:26
(UTC+00:00)

Explorer 11/Cluster Stage 4 - Visible Passes

Search period start: 24 September 2023 00:00
Search period end: 04 October 2023 00:00
Orbit: 466 x 1233 km, 28.8° (Epoch: 23 September)

Date Brightness Start Highest point End Pass type
(mag) Time Alt. Az. Time Alt. Az. Time Alt. Az.
24 Sep 9.1 03:18:47 13° NE 03:18:47 13° NE 03:20:18 10° NE visible
24 Sep 6.8 05:00:57 10° NW 05:06:17 54° NNE 05:10:35 10° ESE visible
24 Sep 9.0 19:33:43 10° WNW 19:39:20 23° NNW 19:44:05 14° NNE visible
25 Sep 9.2 03:05:14 13° NE 03:05:14 13° NE 03:06:14 10° ENE visible
25 Sep 6.6 04:47:07 17° NW 04:51:26 66° NNE 04:55:59 10° ESE visible
25 Sep 9.2 19:19:15 10° WNW 19:24:20 20° NNW 19:29:53 10° NNE visible
26 Sep 9.5 02:51:39 11° ENE 02:51:39 11° ENE 02:51:59 10° ENE visible
26 Sep 6.5 04:33:33 29° NW 04:36:33 79° NNE 04:41:20 10° ESE visible
26 Sep 9.3 19:04:53 10° WNW 19:09:23 18° NNW 19:14:15 10° NNE visible
27 Sep 6.4 04:19:56 48° WNW 04:21:38 88° SSW 04:26:38 10° ESE visible
27 Sep 9.4 18:50:40 10° NW 18:54:27 15° NNW 18:58:32 10° NNE visible
28 Sep 6.5 04:06:16 73° WSW 04:06:39 76° SSW 04:11:53 10° SE visible
28 Sep 9.4 18:36:39 10° NW 18:39:32 13° NNW 18:42:37 10° N visible
29 Sep 7.0 03:52:32 58° SSE 03:52:32 58° SSE 03:57:04 10° SE visible
29 Sep 9.4 18:23:10 10° NNW 18:24:39 11° NNW 18:26:11 10° N visible
30 Sep 7.8 03:38:43 39° SSE 03:38:43 39° SSE 03:42:13 10° SE visible
30 Sep 8.5 05:22:21 10° WSW 05:24:53 13° SSW 05:27:16 10° S visible
01 Oct 8.4 03:24:49 26° SSE 03:24:49 26° SSE 03:27:19 10° SE visible
01 Oct 8.7 05:07:44 10° SW 05:09:57 12° SSW 05:12:02 10° S visible
02 Oct 9.0 03:10:49 18° SE 03:10:49 18° SE 03:12:21 10° SE visible
02 Oct 8.8 04:53:11 10° SW 04:54:59 11° SSW 04:56:43 10° SSW visible
03 Oct 9.4 02:56:45 13° SE 02:56:45 13° SE 02:57:21 10° SE visible
03 Oct 8.9 04:38:49 10° SW 04:40:02 11° SSW 04:41:13 10° SSW visible
